Location: Cucq
(50.4773°N, 1.6202°E)
Time: 21:53:26
(UTC+00:00)

NOSS 0 Rocket - Pass Details

Date: 07 August 2020
Orbit: 933 x 956 km, 70.0° (Epoch: 21 September)

Event Time Altitude Azimuth Distance (km) Brightness Sun altitude
Rises 01:34:28 0° 325° (NW) 3,636 7.4 -20.0°
Reaches altitude 10° 01:37:08 10° 318° (NW) 2,690 6.6 -19.8°
Maximum altitude 01:42:54 40° 251° (WSW) 1,368 4.4 -19.4°
Enters shadow 01:44:41 33° 214° (SW) 1,546 4.5 -19.3°
